TimeMST,TemperatureF,Dew PointF,Humidity,Sea Level PressureIn,VisibilityMPH,Wind Direction,Wind SpeedMPH,Gust SpeedMPH,PrecipitationIn,Events,Conditions,WindDirDegrees,DateUTC
12:35 AM,41.0,21.2,45,30.06,10.0,WSW,19.6,29.9,N/A,,Clear,250,2013-01-09 07:35:00
12:55 AM,41.0,21.2,45,30.05,10.0,WSW,17.3,27.6,N/A,,Clear,240,2013-01-09 07:55:00
1:15 AM,41.0,21.2,45,30.05,10.0,WSW,16.1,29.9,N/A,,Clear,250,2013-01-09 08:15:00
1:35 AM,41.0,21.2,45,30.05,10.0,WSW,18.4,31.1,N/A,,Clear,250,2013-01-09 08:35:00
1:55 AM,41.0,21.2,45,30.05,10.0,WSW,16.1,26.5,N/A,,Clear,240,2013-01-09 08:55:00
2:15 AM,42.8,21.2,42,30.06,10.0,WSW,16.1,25.3,N/A,,Clear,240,2013-01-09 09:15:00
2:35 AM,42.8,21.2,42,30.06,10.0,WSW,19.6,28.8,N/A,,Clear,240,2013-01-09 09:35:00
2:55 AM,42.8,21.2,42,30.06,10.0,WSW,21.9,29.9,N/A,,Clear,250,2013-01-09 09:55:00
3:15 AM,42.8,21.2,42,30.06,10.0,WSW,13.8,34.5,N/A,,Clear,250,2013-01-09 10:15:00
3:35 AM,42.8,21.2,42,30.06,10.0,WSW,20.7,32.2,N/A,,Clear,250,2013-01-09 10:35:00
3:55 AM,42.8,21.2,42,30.07,10.0,WSW,20.7,33.4,N/A,,Clear,240,2013-01-09 10:55:00
4:15 AM,42.8,21.2,42,30.07,10.0,WSW,18.4,29.9,N/A,,Clear,250,2013-01-09 11:15:00
4:35 AM,42.8,21.2,42,30.08,10.0,WSW,15.0,31.1,N/A,,Clear,240,2013-01-09 11:35:00
4:55 AM,42.8,21.2,42,30.08,10.0,SW,13.8,28.8,N/A,,Clear,230,2013-01-09 11:55:00
5:35 AM,41.0,23.0,49,30.07,10.0,SW,16.1,25.3,N/A,,Clear,230,2013-01-09 12:35:00
6:15 AM,42.8,21.2,42,30.05,10.0,SW,13.8,26.5,N/A,,Clear,220,2013-01-09 13:15:00
6:35 AM,41.0,21.2,45,30.05,10.0,WSW,19.6,27.6,N/A,,Clear,240,2013-01-09 13:35:00
6:55 AM,42.8,21.2,42,30.06,10.0,West,18.4,25.3,N/A,,Clear,260,2013-01-09 13:55:00
7:15 AM,42.8,21.2,42,30.04,10.0,WSW,17.3,23.0,N/A,,Clear,250,2013-01-09 14:15:00
7:35 AM,42.8,21.2,42,30.05,10.0,WSW,16.1,29.9,N/A,,Clear,250,2013-01-09 14:35:00
7:55 AM,42.8,21.2,42,30.06,10.0,WSW,19.6,31.1,N/A,,Clear,240,2013-01-09 14:55:00
8:15 AM,42.8,21.2,42,30.05,10.0,SW,20.7,35.7,N/A,,Clear,230,2013-01-09 15:15:00
8:35 AM,42.8,21.2,42,30.06,10.0,WSW,21.9,26.5,N/A,,Clear,240,2013-01-09 15:35:00
8:55 AM,42.8,21.2,42,30.07,10.0,SW,13.8,21.9,N/A,,Clear,230,2013-01-09 15:55:00
9:15 AM,42.8,21.2,42,30.06,10.0,SW,23.0,27.6,N/A,,Clear,220,2013-01-09 16:15:00
9:35 AM,42.8,23.0,46,30.06,10.0,SW,13.8,-,N/A,,Clear,220,2013-01-09 16:35:00
9:55 AM,44.6,23.0,43,30.05,10.0,SW,17.3,23.0,N/A,,Clear,230,2013-01-09 16:55:00
10:15 AM,44.6,21.2,39,30.03,10.0,SW,13.8,24.2,N/A,,Clear,230,2013-01-09 17:15:00
10:55 AM,46.4,21.2,37,30.03,10.0,SW,11.5,-,N/A,,Unknown,220,2013-01-09 17:55:00
11:35 AM,48.2,21.2,34,30.00,10.0,SSW,6.9,-,N/A,,Clear,200,2013-01-09 18:35:00
11:55 AM,48.2,21.2,34,29.98,10.0,South,4.6,-,N/A,,Clear,180,2013-01-09 18:55:00
12:15 PM,48.2,21.2,34,29.96,10.0,South,6.9,-,N/A,,Clear,170,2013-01-09 19:15:00
12:55 PM,48.2,21.2,34,29.92,10.0,SE,12.7,-,N/A,,Clear,140,2013-01-09 19:55:00
1:15 PM,48.2,21.2,34,29.92,10.0,SE,13.8,-,N/A,,Clear,140,2013-01-09 20:15:00
1:35 PM,46.4,19.4,34,29.91,10.0,SE,15.0,-,N/A,,Clear,130,2013-01-09 20:35:00
1:55 PM,46.4,21.2,37,29.90,10.0,SE,17.3,-,N/A,,Clear,140,2013-01-09 20:55:00
2:15 PM,44.6,21.2,39,29.90,10.0,SE,18.4,-,N/A,,Clear,130,2013-01-09 21:15:00
2:35 PM,44.6,21.2,39,29.88,10.0,SE,18.4,-,N/A,,Clear,140,2013-01-09 21:35:00
2:55 PM,44.6,21.2,39,29.88,10.0,SSE,18.4,-,N/A,,Clear,150,2013-01-09 21:55:00
3:15 PM,42.8,21.2,42,29.88,10.0,SSE,11.5,16.1,N/A,,Clear,150,2013-01-09 22:15:00
3:35 PM,42.8,21.2,42,29.86,10.0,SE,4.6,-,N/A,,Clear,140,2013-01-09 22:35:00
3:55 PM,41.0,23.0,49,29.86,10.0,NNE,4.6,-,N/A,,Clear,30,2013-01-09 22:55:00
4:15 PM,39.2,24.8,56,29.85,10.0,NE,3.5,-,N/A,,Clear,40,2013-01-09 23:15:00
4:35 PM,37.4,23.0,56,29.85,10.0,ENE,4.6,-,N/A,,Clear,70,2013-01-09 23:35:00
4:55 PM,35.6,23.0,60,29.84,10.0,East,9.2,-,N/A,,Clear,80,2013-01-09 23:55:00
5:15 PM,35.6,23.0,60,29.84,10.0,East,5.8,-,N/A,,Clear,90,2013-01-10 00:15:00
5:35 PM,35.6,23.0,60,29.83,10.0,SW,3.5,-,N/A,,Clear,220,2013-01-10 00:35:00
5:55 PM,32.0,23.0,69,29.83,10.0,SSW,4.6,-,N/A,,Clear,200,2013-01-10 00:55:00
6:15 PM,32.0,23.0,69,29.83,10.0,Calm,Calm,-,N/A,,Clear,0,2013-01-10 01:15:00
7:35 PM,28.4,21.2,74,29.80,10.0,West,4.6,-,N/A,,Clear,270,2013-01-10 02:35:00
7:55 PM,26.6,21.2,80,29.80,10.0,ESE,4.6,-,N/A,,Clear,120,2013-01-10 02:55:00
8:15 PM,28.4,21.2,74,29.79,10.0,North,4.6,-,N/A,,Clear,10,2013-01-10 03:15:00
8:35 PM,26.6,21.2,80,29.78,10.0,Calm,Calm,-,N/A,,Clear,0,2013-01-10 03:35:00
8:55 PM,26.6,21.2,80,29.78,10.0,Calm,Calm,-,N/A,,Clear,0,2013-01-10 03:55:00
9:15 PM,28.4,23.0,80,29.78,10.0,West,4.6,-,N/A,,Clear,270,2013-01-10 04:15:00
9:35 PM,26.6,21.2,80,29.78,10.0,Calm,Calm,-,N/A,,Clear,0,2013-01-10 04:35:00
9:55 PM,24.8,21.2,86,29.77,10.0,Calm,Calm,-,N/A,,Clear,0,2013-01-10 04:55:00
10:15 PM,24.8,19.4,80,29.77,10.0,West,3.5,-,N/A,,Clear,280,2013-01-10 05:15:00
10:35 PM,26.6,21.2,80,29.76,10.0,Calm,Calm,-,N/A,,Clear,0,2013-01-10 05:35:00
10:55 PM,28.4,21.2,74,29.75,10.0,South,10.4,-,N/A,,Clear,180,2013-01-10 05:55:00
11:15 PM,28.4,21.2,74,29.75,10.0,SSW,5.8,-,N/A,,Clear,210,2013-01-10 06:15:00
11:35 PM,26.6,21.2,80,29.74,10.0,Calm,Calm,-,N/A,,Clear,0,2013-01-10 06:35:00
11:55 PM,26.6,21.2,80,29.72,10.0,Calm,Calm,-,N/A,,Clear,0,2013-01-10 06:55:00